Simultaneous Nadir Overpasses (SNOs) Predictions

Prediction of SNOs between GOES-16 and LANDSAT-8 Satellite Orbit:

Table of predicted SNOs for the next 14.0 days since TLE Epoch: 3/5/2022
Index Date Time (GOES-16) GOES-16 Lat,Lon LANDSAT-8 Lat,Lon Distance(km) Time Diff (sec)
1 03/05/2022 15:06:29 0.05, -75.21 -0.21, -73.91 148.01 80
2 03/06/2022 03:30:33 -0.06, -75.19 -0.90, -79.10 444.40 80
3 03/07/2022 14:54:17 0.05, -75.21 -0.83, -70.95 484.03 80
4 03/08/2022 03:18:21 -0.05, -75.19 -0.28, -76.14 108.34 80
5 03/10/2022 03:03:29 -0.05, -75.20 0.35, -73.18 228.14 80
6 03/10/2022 15:27:25 0.05, -75.22 0.70, -78.35 356.05 80
7 03/12/2022 15:12:33 0.05, -75.22 0.07, -75.40 19.14 80
8 03/14/2022 15:00:21 0.04, -75.24 -0.57, -72.44 318.46 80
9 03/15/2022 03:24:25 -0.04, -75.22 -0.53, -77.63 273.32 80
10 03/17/2022 03:09:32 -0.04, -75.25 0.06, -74.67 65.13 80
